Location: Newark
(50.4348°N, 30.5552°E)
Time: 06:40:19
(UTC+00:00)

Transit 2A Rocket - Pass Details

Date: 05 February 2020
Orbit: 591 x 912 km, 66.7° (Epoch: 27 February)

Event Time Altitude Azimuth Distance (km) Brightness Sun altitude
Exits shadow 03:20:17 16° 342° (NNW) 1,628 6.5 -20.5°
Drops below altitude 10° 03:22:48 10° 15° (NNE) 2,035 7.4 -20.1°
Sets 03:25:59 0° 37° (NE) 3,006 8.6 -19.6°
